This is the latest recevied weather packets stored in our database for station/object WX7FGZ-6. If no packets are shown the sender has not sent any weather packets the latest 10 day(s).
| Time | Temp. | Humidity | Pressure | Rain* | Wind** | Luminosity | Snow |
|---|---|---|---|---|---|---|---|
| 1777571660 | 4.44° C | 40% | 1019.8 hPa | 0 mm | - | - | - |
| 1777571060 | 5° C | 40% | 1019.3 hPa | 0 mm | - | - | - |
| 1777570159 | 3.89° C | 42% | 1018.7 hPa | 0 mm | - | - | - |
| 1777569559 | 3.33° C | 41% | 1018.6 hPa | 0 mm | - | - | - |
| 1777569259 | 3.33° C | 41% | 1018.5 hPa | 0 mm | - | - | - |
| 1777568959 | 3.33° C | 42% | 1018.5 hPa | 0 mm | - | - | - |
| 1777568359 | 2.78° C | 43% | 1018.5 hPa | 0 mm | - | - | - |
| 1777568059 | 2.78° C | 42% | 1018.4 hPa | 0 mm | - | - | - |
| 1777567760 | 2.78° C | 43% | 1018.5 hPa | 0 mm | - | - | - |
| 1777567460 | 2.22° C | 40% | 1018.5 hPa | 0 mm | - | - | - |
| 1777567160 | 2.78° C | 42% | 1018.4 hPa | 0 mm | - | - | - |
| 1777566860 | 2.78° C | 44% | 1018.4 hPa | 0 mm | - | - | - |
| 1777566560 | 2.22° C | 47% | 1018.4 hPa | 0 mm | - | - | - |
| 1777566260 | 2.22° C | 46% | 1018.3 hPa | 0 mm | - | - | - |
| 1777565660 | 1.67° C | 46% | 1018.1 hPa | 0 mm | - | - | - |
| 1777565360 | 1.67° C | 42% | 1018.3 hPa | 0 mm | - | - | - |
| 1777565059 | 1.67° C | 44% | 1018.4 hPa | 0 mm | - | - | - |
| 1777564459 | 1.11° C | 45% | 1019.1 hPa | 0 mm | - | - | - |
| 1777564159 | 1.11° C | 46% | 1019.4 hPa | 0 mm | - | - | - |
| 1777563559 | 1.11° C | 45% | 1019.7 hPa | 0 mm | - | - | - |
| 1777563259 | 1.11° C | 45% | 1019.9 hPa | 0 mm | - | - | - |
| 1777562781 | 1.11° C | 45% | 1020 hPa | 0 mm | - | - | - |
| 1777562048 | 1.11° C | 41% | 1019.9 hPa | 0 mm | - | - | - |
| 1777560674 | 1.11° C | 32% | 1018.8 hPa | 0 mm | - | - | - |
| 1777560074 | 0° C | 33% | 1018 hPa | 0 mm | - | - | - |
* Rain latest hour (hover to see other rain measurements)
** Current wind speed in m/s (hover to see current wind gust speed)